Tekamah, NE

5:52 PM CDT on April 29, 2017 (GMT -0500)
Tekamah

Weather History for KTQE - October, 2012

Change the Weather History Date:

Friday, October 26, 2012

  Actual Average Record
Temperature  
Mean Temperature 37 °F -  
Max Temperature 42 °F 62 °F 83 °F (1989)
Min Temperature 32 °F 37 °F 21 °F (2001)
Degree Days  
Heating Degree Days 28    
Moisture  
Dew Point 26 °F    
Average Humidity 64    
Maximum Humidity 75    
Minimum Humidity 53    
Precipitation  
Precipitation 0.00 in - - ()
Sea Level Pressure  
Sea Level Pressure 30.46 in    
Wind  
Wind Speed 10 mph (NW)    
Max Wind Speed 13 mph    
Max Gust Speed -    
Visibility 10 miles    
Events      
Averages and records for this station are not official NWS values.
T = Trace of Precipitation, MM = Missing Value Source: NWS Daily Summary

Daily Weather History Graph

Daily Weather History Graph

Search for Another Location

Airport or City:

Trip Planner

Search our weather history database for the weather conditions in past years. The results will help you decide how hot, cold, wet, or windy it might be!

Date:

Astronomy

Oct. 26, 2012 Rise Set
Actual Time 7:50 AM CDT 6:26 PM CDT
Civil Twilight 7:21 AM CDT 6:54 PM CDT
Nautical Twilight 6:49 AM CDT 7:27 PM CDT
Astronomical Twilight 6:16 AM CDT 7:59 PM CDT
Moon 4:44 PM CDT (10/26) 4:45 AM CDT (10/26)
Length of Visible Light 11h 33m
Length of Day
10h 35m
Waxing Gibbous, 91% of the Moon is Illuminated
Oct 26
Waxing Gibbous
Oct 29
Full
Nov 6
Last Quarter
Nov 13
New
Nov 20
First Quarter

Hourly Weather History & Observations

Time (CDT) Temp. Windchill Dew Point Humidity Pressure Visibility Wind Dir Wind Speed Gust Speed Precip Events Conditions
1:54 AM 33.1 °F 24.4 °F 26.1 °F 75% 30.35 in 10.0 mi NW 11.5 mph - N/A   Clear
2:54 AM 33.1 °F 24.4 °F 26.1 °F 75% 30.38 in 10.0 mi NW 11.5 mph - N/A   Clear
3:54 AM 32.0 °F 24.8 °F 25.0 °F 75% 30.40 in 10.0 mi West 8.1 mph - N/A   Scattered Clouds
4:54 AM 33.1 °F 25.5 °F 26.1 °F 75% 30.43 in 10.0 mi WNW 9.2 mph - N/A   Overcast
5:54 AM 34.0 °F 26.6 °F 26.1 °F 73% 30.45 in 10.0 mi NW 9.2 mph - N/A   Overcast
6:54 AM 34.0 °F 28.0 °F 27.0 °F 75% 30.46 in 10.0 mi NW 6.9 mph - N/A   Overcast
7:54 AM 35.1 °F 29.3 °F 27.0 °F 72% 30.48 in 10.0 mi NW 6.9 mph - N/A   Overcast
8:54 AM 36.0 °F 29.6 °F 26.1 °F 67% 30.50 in 10.0 mi NNW 8.1 mph - N/A   Overcast
9:54 AM 37.9 °F 30.9 °F 26.1 °F 62% 30.51 in 10.0 mi NNW 10.4 mph - N/A   Overcast
10:54 AM 39.0 °F 31.4 °F 26.1 °F 60% 30.52 in 10.0 mi NNW 12.7 mph - N/A   Overcast
11:54 AM 39.9 °F 33.4 °F 25.0 °F 55% 30.52 in 10.0 mi NW 10.4 mph - N/A   Overcast
12:54 PM 41.0 °F 34.3 °F 26.1 °F 55% 30.51 in 10.0 mi NW 11.5 mph - N/A   Overcast
1:54 PM 41.0 °F 34.3 °F 26.1 °F 55% 30.50 in 10.0 mi NNW 11.5 mph - N/A   Overcast
2:54 PM 42.1 °F 36.6 °F 27.0 °F 55% 30.47 in 10.0 mi WNW 9.2 mph - N/A   Overcast
3:54 PM 42.1 °F 35.7 °F 26.1 °F 53% 30.46 in 10.0 mi WNW 11.5 mph - N/A   Overcast
4:54 PM 41.0 °F 34.3 °F 26.1 °F 55% 30.45 in 10.0 mi WNW 11.5 mph - N/A   Overcast
5:54 PM 39.9 °F 33.9 °F 25.0 °F 55% 30.45 in 10.0 mi WNW 9.2 mph - N/A   Overcast
6:54 PM 39.9 °F 33.9 °F 25.0 °F 55% 30.44 in 10.0 mi NW 9.2 mph - N/A   Overcast
7:54 PM 37.9 °F 32.7 °F 26.1 °F 62% 30.45 in 10.0 mi NW 6.9 mph - N/A   Overcast
8:54 PM 37.9 °F 33.5 °F 26.1 °F 62% 30.45 in 10.0 mi NW 5.8 mph - N/A   Overcast
9:54 PM 37.9 °F 32.7 °F 25.0 °F 60% 30.45 in 10.0 mi WNW 6.9 mph - N/A   Overcast
10:54 PM 37.0 °F 31.6 °F 25.0 °F 62% 30.44 in 10.0 mi WNW 6.9 mph - N/A   Overcast
11:54 PM 34.0 °F 28.8 °F 25.0 °F 70% 30.44 in 10.0 mi WNW 5.8 mph - N/A   Partly Cloudy